Time,TemperatureF,DewpointF,PressureIn,WindDirection,WindDirectionDegrees,WindSpeedMPH,WindSpeedGustMPH,Humidity,HourlyPrecipIn,Conditions,Clouds,dailyrainin,SoftwareType,DateUTC
2013-11-22 00:22:00,49.0,48.0,30.19,SSE,163,0.0,2.0,97,0.04,,,0.38,,2013-11-22 05:22:00,
2013-11-22 00:43:00,49.0,48.0,30.19,South,169,0.0,2.0,97,0.03,,,0.38,,2013-11-22 05:43:00,
2013-11-22 00:52:00,49.0,48.0,30.19,WSW,239,0.0,2.0,97,0.03,,,0.39,,2013-11-22 05:52:00,
2013-11-22 01:21:00,49.0,48.0,30.18,WSW,239,0.0,2.0,97,0.02,,,0.40,,2013-11-22 06:21:00,
2013-11-22 01:42:00,49.0,48.0,30.18,WSW,239,0.0,1.0,97,0.02,,,0.40,,2013-11-22 06:42:00,
2013-11-22 01:52:00,49.0,48.0,30.19,WSW,239,0.0,0.0,97,0.01,,,0.40,,2013-11-22 06:52:00,
2013-11-22 02:12:00,49.0,48.0,30.18,WNW,294,0.0,3.0,97,0.02,,,0.41,,2013-11-22 07:12:00,
2013-11-22 02:21:00,49.0,48.0,30.18,WNW,292,0.0,2.0,97,0.02,,,0.42,,2013-11-22 07:21:00,
2013-11-22 02:42:00,49.0,48.0,30.18,WSW,255,0.0,2.0,97,0.02,,,0.42,,2013-11-22 07:42:00,
2013-11-22 02:52:00,49.0,48.0,30.18,WSW,245,2.0,4.0,97,0.02,,,0.42,,2013-11-22 07:52:00,
2013-11-22 03:11:00,49.0,48.0,30.19,SW,232,1.0,4.0,97,0.01,,,0.42,,2013-11-22 08:11:00,
2013-11-22 03:21:00,49.0,48.0,30.19,WSW,238,1.0,3.0,97,0.00,,,0.42,,2013-11-22 08:21:00,
2013-11-22 03:42:00,49.0,48.0,30.19,SW,235,0.0,3.0,97,0.00,,,0.42,,2013-11-22 08:42:00,
2013-11-22 03:52:00,49.0,48.0,30.19,WSW,237,0.0,3.0,97,0.00,,,0.42,,2013-11-22 08:52:00,
2013-11-22 04:11:00,49.0,48.0,30.18,SW,233,0.0,4.0,97,0.00,,,0.42,,2013-11-22 09:11:00,
2013-11-22 04:21:00,49.0,48.0,30.18,WSW,248,0.0,3.0,97,0.00,,,0.42,,2013-11-22 09:21:00,
2013-11-22 04:43:00,49.0,48.0,30.18,WSW,248,0.0,2.0,97,0.00,,,0.42,,2013-11-22 09:43:00,
2013-11-22 04:53:00,48.0,47.0,30.17,WSW,246,0.0,2.0,97,0.00,,,0.42,,2013-11-22 09:53:00,
2013-11-22 05:13:00,48.0,47.0,30.17,WSW,250,0.0,3.0,97,0.00,,,0.42,,2013-11-22 10:13:00,
2013-11-22 05:23:00,48.0,47.0,30.17,WSW,250,0.0,2.0,97,0.00,,,0.42,,2013-11-22 10:23:00,
2013-11-22 05:42:00,48.0,47.0,30.17,NW,323,0.0,4.0,97,0.00,,,0.40,,2013-11-22 10:42:00,
2013-11-22 05:52:00,48.0,47.0,30.17,NW,321,1.0,3.0,97,0.00,,,0.40,,2013-11-22 10:52:00,
2013-11-22 06:12:00,48.0,47.0,30.17,NW,313,2.0,3.0,97,0.00,,,0.40,,2013-11-22 11:12:00,
2013-11-22 06:22:00,48.0,47.0,30.18,NW,315,1.0,4.0,97,0.00,,,0.40,,2013-11-22 11:22:00,
2013-11-22 06:42:00,48.0,47.0,30.19,NW,306,3.0,5.0,97,0.00,,,0.39,,2013-11-22 11:42:00,
2013-11-22 06:52:00,47.0,46.0,30.18,NNW,335,1.0,5.0,97,0.00,,,0.39,,2013-11-22 11:52:00,
2013-11-22 07:22:00,47.0,46.0,30.20,NW,326,1.0,3.0,97,0.02,,,0.41,,2013-11-22 12:22:00,
2013-11-22 07:42:00,47.0,46.0,30.20,NW,309,2.0,5.0,97,0.03,,,0.42,,2013-11-22 12:42:00,
2013-11-22 07:52:00,47.0,46.0,30.21,NW,304,1.0,4.0,97,0.04,,,0.43,,2013-11-22 12:52:00,
2013-11-22 08:11:00,47.0,46.0,30.22,NW,311,2.0,5.0,97,0.04,,,0.43,,2013-11-22 13:11:00,
2013-11-22 08:22:00,46.0,45.0,30.22,NW,318,3.0,6.0,97,0.03,,,0.44,,2013-11-22 13:22:00,
2013-11-22 08:42:00,46.0,45.0,30.22,NW,313,3.0,6.0,97,0.02,,,0.43,,2013-11-22 13:42:00,
2013-11-22 08:52:00,46.0,45.0,30.23,NW,313,2.0,6.0,97,0.02,,,0.44,,2013-11-22 13:52:00,
2013-11-22 09:11:00,46.0,45.0,30.24,NW,313,5.0,8.0,97,0.02,,,0.44,,2013-11-22 14:11:00,
2013-11-22 09:22:00,46.0,45.0,30.24,NW,309,4.0,8.0,97,0.01,,,0.44,,2013-11-22 14:22:00,
2013-11-22 09:42:00,46.0,45.0,30.24,NNW,334,5.0,10.0,96,0.01,,,0.43,,2013-11-22 14:42:00,
2013-11-22 09:52:00,45.0,44.0,30.26,North,351,5.0,11.0,96,0.00,,,0.43,,2013-11-22 14:52:00,
2013-11-22 10:11:00,44.0,43.0,30.27,NNW,329,6.0,11.0,95,0.00,,,0.43,,2013-11-22 15:11:00,
2013-11-22 10:22:00,44.0,42.0,30.27,North,5,7.0,10.0,94,0.00,,,0.43,,2013-11-22 15:22:00,
2013-11-22 10:43:00,43.0,41.0,30.28,NW,321,6.0,12.0,94,0.00,,,0.38,,2013-11-22 15:43:00,
2013-11-22 10:54:00,43.0,42.0,30.28,NNW,344,7.0,11.0,95,0.00,,,0.38,,2013-11-22 15:54:00,
2013-11-22 11:23:00,43.0,41.0,30.29,NNW,346,4.0,9.0,92,0.00,,,0.38,,2013-11-22 16:23:00,
2013-11-22 11:43:00,43.0,41.0,30.29,NW,323,7.0,11.0,92,0.00,,,0.33,,2013-11-22 16:43:00,
2013-11-22 11:52:00,43.0,41.0,30.29,North,355,5.0,10.0,93,0.00,,,0.33,,2013-11-22 16:52:00,
2013-11-22 12:12:00,43.0,41.0,30.30,North,360,7.0,15.0,93,0.00,,,0.33,,2013-11-22 17:12:00,
2013-11-22 12:22:00,42.0,40.0,30.29,NW,313,5.0,13.0,93,0.00,,,0.33,,2013-11-22 17:22:00,
2013-11-22 12:42:00,42.0,40.0,30.30,NNW,341,8.0,16.0,93,0.00,,,0.30,,2013-11-22 17:42:00,
2013-11-22 12:52:00,42.0,40.0,30.30,NNW,343,10.0,15.0,91,0.00,,,0.30,,2013-11-22 17:52:00,
2013-11-22 13:12:00,41.0,39.0,30.31,NNW,331,7.0,13.0,92,0.00,,,0.30,,2013-11-22 18:12:00,
2013-11-22 13:21:00,41.0,39.0,30.31,NW,323,9.0,14.0,92,0.00,,,0.30,,2013-11-22 18:21:00,
2013-11-22 13:42:00,41.0,39.0,30.31,NNW,348,9.0,13.0,92,0.00,,,0.28,,2013-11-22 18:42:00,
2013-11-22 13:52:00,41.0,39.0,30.31,North,355,9.0,15.0,91,0.00,,,0.28,,2013-11-22 18:52:00,
2013-11-22 14:11:00,41.0,38.0,30.32,NW,320,7.0,13.0,90,0.00,,,0.28,,2013-11-22 19:11:00,
2013-11-22 14:22:00,41.0,38.0,30.32,NW,319,6.0,14.0,90,0.00,,,0.28,,2013-11-22 19:22:00,
2013-11-22 14:42:00,40.0,37.0,30.32,North,355,7.0,15.0,90,0.00,,,0.28,,2013-11-22 19:42:00,
2013-11-22 14:52:00,40.0,37.0,30.32,North,355,8.0,14.0,90,0.00,,,0.28,,2013-11-22 19:52:00,
2013-11-22 15:11:00,40.0,37.0,30.32,NNW,344,6.0,17.0,90,0.00,,,0.28,,2013-11-22 20:11:00,
2013-11-22 15:22:00,40.0,37.0,30.32,NNW,329,8.0,13.0,89,0.00,,,0.28,,2013-11-22 20:22:00,
2013-11-22 15:42:00,40.0,36.0,30.32,North,350,7.0,15.0,87,0.00,,,0.27,,2013-11-22 20:42:00,
2013-11-22 15:52:00,40.0,36.0,30.33,NW,307,6.0,12.0,87,0.00,,,0.27,,2013-11-22 20:52:00,
2013-11-22 16:11:00,40.0,36.0,30.33,North,360,6.0,12.0,87,0.00,,,0.27,,2013-11-22 21:11:00,
2013-11-22 16:22:00,40.0,36.0,30.34,North,355,7.0,12.0,85,0.00,,,0.27,,2013-11-22 21:22:00,
2013-11-22 16:43:00,40.0,36.0,30.34,NNW,345,6.0,10.0,84,0.00,,,0.25,,2013-11-22 21:43:00,
2013-11-22 16:53:00,40.0,36.0,30.35,NNW,340,4.0,9.0,85,0.00,,,0.25,,2013-11-22 21:53:00,
2013-11-22 17:13:00,40.0,36.0,30.36,North,355,5.0,13.0,84,0.00,,,0.25,,2013-11-22 22:13:00,
2013-11-22 17:23:00,40.0,36.0,30.36,NNW,329,5.0,12.0,85,0.00,,,0.25,,2013-11-22 22:23:00,
2013-11-22 17:42:00,40.0,36.0,30.37,NW,311,6.0,11.0,85,0.00,,,0.22,,2013-11-22 22:42:00,
2013-11-22 17:53:00,39.0,35.0,30.38,NNW,335,9.0,15.0,85,0.00,,,0.22,,2013-11-22 22:53:00,
2013-11-22 18:12:00,38.0,34.0,30.40,NW,319,9.0,17.0,86,0.00,,,0.22,,2013-11-22 23:12:00,
2013-11-22 18:22:00,38.0,34.0,30.41,NW,325,7.0,13.0,87,0.00,,,0.22,,2013-11-22 23:22:00,
2013-11-22 18:42:00,37.0,34.0,30.41,WNW,299,5.0,13.0,87,0.00,,,0.19,,2013-11-22 23:42:00,
2013-11-22 18:53:00,37.0,34.0,30.41,NNW,338,7.0,14.0,87,0.00,,,0.19,,2013-11-22 23:53:00,
2013-11-22 19:11:00,37.0,34.0,30.42,North,355,6.0,12.0,87,0.00,,,0.19,,2013-11-23 00:11:00,
2013-11-22 19:21:00,37.0,34.0,30.41,NNW,336,6.0,15.0,87,0.00,,,0.19,,2013-11-23 00:21:00,
2013-11-22 19:42:00,36.0,33.0,30.42,North,360,7.0,15.0,88,0.00,,,0.18,,2013-11-23 00:42:00,
2013-11-22 19:52:00,36.0,33.0,30.42,NNW,348,6.0,13.0,89,0.00,,,0.18,,2013-11-23 00:52:00,
2013-11-22 20:11:00,36.0,33.0,30.42,North,360,7.0,12.0,88,0.00,,,0.18,,2013-11-23 01:11:00,
2013-11-22 20:21:00,36.0,33.0,30.43,NNW,348,5.0,13.0,87,0.00,,,0.18,,2013-11-23 01:21:00,
2013-11-22 20:42:00,36.0,33.0,30.43,North,355,5.0,14.0,88,0.00,,,0.16,,2013-11-23 01:42:00,
2013-11-22 20:52:00,35.0,32.0,30.43,North,355,6.0,11.0,88,0.00,,,0.16,,2013-11-23 01:52:00,
2013-11-22 21:22:00,35.0,32.0,30.44,North,355,5.0,10.0,88,0.00,,,0.16,,2013-11-23 02:22:00,
2013-11-22 21:42:00,35.0,32.0,30.44,NW,316,3.0,6.0,88,0.00,,,0.16,,2013-11-23 02:42:00,
2013-11-22 21:52:00,35.0,32.0,30.44,NNW,328,3.0,7.0,88,0.00,,,0.16,,2013-11-23 02:52:00,
2013-11-22 22:11:00,34.0,31.0,30.45,NW,315,2.0,6.0,89,0.00,,,0.16,,2013-11-23 03:11:00,
2013-11-22 22:22:00,34.0,31.0,30.45,NNW,341,2.0,7.0,88,0.00,,,0.16,,2013-11-23 03:22:00,
2013-11-22 22:43:00,33.0,30.0,30.44,NNW,335,3.0,7.0,89,0.00,,,0.15,,2013-11-23 03:43:00,
2013-11-22 22:53:00,33.0,30.0,30.44,NW,313,1.0,5.0,89,0.00,,,0.15,,2013-11-23 03:53:00,
2013-11-22 23:13:00,32.0,29.0,30.44,NNW,328,1.0,6.0,89,0.00,,,0.15,,2013-11-23 04:13:00,
2013-11-22 23:23:00,32.0,29.0,30.44,NW,315,2.0,5.0,90,0.00,,,0.15,,2013-11-23 04:23:00,
2013-11-22 23:43:00,32.0,29.0,30.44,NW,322,2.0,5.0,90,0.00,,,0.14,,2013-11-23 04:43:00,
2013-11-22 23:53:00,32.0,29.0,30.44,NW,326,2.0,6.0,90,0.00,,,0.14,,2013-11-23 04:53:00,